Weather History for West Palm Beach, FL

Change the Weather History Date:

Friday, October 7, 2011

  Actual Average Record
Temperature  
Mean Temperature 82 °F 80 °F  
Max Temperature 87 °F 86 °F 93 °F (2009)
Min Temperature 76 °F 74 °F 65 °F (1972)
Degree Days  
Heating Degree Days 0 0  
Month to date heating degree days 0 0  
Since 1 July heating degree days 0 0  
Cooling Degree Days 17 15  
Month to date cooling degree days 113 107  
Year to date cooling degree days 4005 3315  
Growing Degree Days 31 (Base 50)    
Moisture  
Dew Point 67 °F    
Average Humidity 60    
Maximum Humidity 74    
Minimum Humidity 46    
Precipitation  
Precipitation T in 0.19 in 3.75 in (1891)
Month to date precipitation 0.02 1.40  
Year to date precipitation 35.79 50.47  
Snow  
Snow 0.00 in - - ()
Month to date snowfall 0.0  
Since 1 July snowfall 0.0  
Since 1 September snowfall 0.0  
Snow Depth 0.00 in    
Sea Level Pressure  
Sea Level Pressure 30.02 in    
Wind  
Wind Speed 15 mph (ENE)    
Max Wind Speed 25 mph    
Max Gust Speed 31 mph    
Visibility 10 miles    
Events Rain    
T = Trace of Precipitation, MM = Missing Value Source: NWS Daily Summary

Daily Weather History Graph

Daily Weather History Graph

Search for Another Location

Airport:

Trip Planner

Search our weather history database for the weather conditions in past years. The results will help you decide how hot, cold, wet, or windy it might be!

Date:

Astronomy

Oct. 07, 2011 Rise Set
Actual Time 7:15 AM EDT 7:00 PM EDT
Civil Twilight 6:52 AM EDT 7:23 PM EDT
Nautical Twilight 6:25 AM EDT 7:50 PM EDT
Astronomical Twilight 5:58 AM EDT 8:17 PM EDT
Moon 4:24 PM EDT (10/7) 3:24 AM EDT (10/7)
Length of Visible Light 12h 31m
Length of Day
11h 44m
Waxing Gibbous, 83% of the Moon is Illuminated
Oct 7
Waxing Gibbous
Oct 11
Full
Oct 19
Last Quarter
Oct 26
New
Nov 2
First Quarter

Hourly Weather History & Observations

Time (EDT) Temp. Heat Index Dew Point Humidity Pressure Visibility Wind Dir Wind Speed Gust Speed Precip Events Conditions
12:53 AM 80.1 °F 82.7 °F 68.0 °F 67% 30.02 in 10.0 mi East 15.0 mph - N/A   Mostly Cloudy
1:53 AM 79.0 °F - 66.0 °F 64% 30.01 in 10.0 mi East 11.5 mph - N/A   Mostly Cloudy
2:53 AM 80.1 °F 81.9 °F 64.9 °F 60% 30.00 in 10.0 mi East 17.3 mph 23.0 mph N/A   Mostly Cloudy
3:53 AM 80.1 °F 82.1 °F 66.0 °F 62% 29.99 in 10.0 mi East 13.8 mph - N/A   Scattered Clouds
4:53 AM 80.1 °F 82.3 °F 66.9 °F 64% 29.99 in 10.0 mi East 13.8 mph - N/A   Mostly Cloudy
5:53 AM 80.1 °F 82.3 °F 66.9 °F 64% 30.00 in 10.0 mi ENE 12.7 mph - N/A   Mostly Cloudy
6:53 AM 80.1 °F 82.7 °F 68.0 °F 67% 30.02 in 10.0 mi East 11.5 mph - N/A   Scattered Clouds
7:53 AM 80.1 °F 82.3 °F 66.9 °F 64% 30.03 in 10.0 mi East 13.8 mph - N/A   Mostly Cloudy
8:53 AM 82.0 °F 84.1 °F 66.0 °F 58% 30.05 in 10.0 mi East 13.8 mph - N/A   Mostly Cloudy
9:53 AM 84.0 °F 85.8 °F 64.9 °F 53% 30.07 in 10.0 mi ENE 15.0 mph 20.7 mph N/A   Scattered Clouds
10:53 AM 84.9 °F 87.6 °F 66.9 °F 55% 30.07 in 10.0 mi East 17.3 mph - N/A   Mostly Cloudy
11:53 AM 86.0 °F 88.8 °F 66.9 °F 53% 30.06 in 10.0 mi ENE 13.8 mph 20.7 mph N/A   Mostly Cloudy
12:53 PM 86.0 °F 87.6 °F 64.9 °F 49% 30.04 in 10.0 mi East 18.4 mph 24.2 mph N/A   Mostly Cloudy
1:53 PM 87.1 °F 88.9 °F 64.9 °F 48% 30.02 in 10.0 mi East 17.3 mph 23.0 mph N/A   Scattered Clouds
2:53 PM 87.1 °F 89.2 °F 66.0 °F 49% 30.00 in 10.0 mi East 15.0 mph 25.3 mph N/A   Mostly Cloudy
3:53 PM 84.9 °F 87.1 °F 66.0 °F 53% 30.00 in 10.0 mi ENE 15.0 mph 23.0 mph N/A   Scattered Clouds
4:53 PM 82.0 °F 85.9 °F 70.0 °F 67% 30.00 in 10.0 mi NNE 13.8 mph - N/A   Mostly Cloudy
5:53 PM 82.0 °F 85.5 °F 69.1 °F 65% 30.00 in 10.0 mi East 16.1 mph 26.5 mph N/A   Mostly Cloudy
6:53 PM 81.0 °F 83.3 °F 66.9 °F 62% 30.00 in 10.0 mi East 17.3 mph - N/A   Mostly Cloudy
7:53 PM 81.0 °F 84.1 °F 69.1 °F 67% 30.02 in 10.0 mi ENE 13.8 mph 25.3 mph N/A   Mostly Cloudy
8:53 PM 81.0 °F 83.3 °F 66.9 °F 62% 30.03 in 10.0 mi ENE 12.7 mph 21.9 mph N/A   Mostly Cloudy
9:53 PM 75.9 °F - 66.9 °F 74% 30.04 in 10.0 mi ENE 16.1 mph 31.1 mph 0.00 in Rain Light Rain
10:53 PM 80.1 °F 82.9 °F 69.1 °F 69% 30.05 in 10.0 mi ENE 15.0 mph 23.0 mph 0.00 in   Overcast
11:53 PM 80.1 °F 82.3 °F 66.9 °F 64% 30.03 in 10.0 mi East 11.5 mph - N/A   Mostly Cloudy